{"data":{"norad_id":68875,"intl_designator":"2026-095M","name":"KUIPER-00478","alt_names":[],"object_type":"PAYLOAD","status":"ACTIVE","operator":null,"country":"US","launch_date":"2026-04-28","launch_site_code":"AFETR","launch_vehicle":null,"mission":null,"orbit_class":"UNKNOWN","rcs_meters":null,"size_class":null,"mass_kg":null,"dimensions":null,"purposes":[],"wikipedia_slug":null,"has_3d_model":false,"image_url":null,"decayed_at":null,"tle_current":{"epoch":"2026-09-20T00:43:06.792672Z","epoch_age_seconds":56162,"freshness":"FRESH","line1":"1 68875U 26095M   26263.02993973  .00000135  00000+0  46683-4 0  9996","line2":"2 68875  51.9027 173.7675 0000812  85.9458 274.1597 14.79923657 21906","mean_motion":14.79923657,"eccentricity":8.12e-5,"inclination_deg":51.9027,"raan_deg":173.7675,"arg_perigee_deg":85.9458,"mean_anomaly_deg":274.1597,"bstar":4.6683e-5,"rev_number":2190,"period_min":97.302316453206,"perigee_km":628.99609745358,"apogee_km":630.13414827833,"semimajor_km":7007.702122866,"source":"CELESTRAK","updated_at":"2026-09-20T09:00:24.534906Z"}}}